Lid_Strength_Index
6 9 12 9 8 8 8 9 9 8 6 7 8 8 7 6 6 6 5 4 4 4 3 2 2 1 1 1 1 1 1 1 0 1 1 1 1 0 -0 -1 -1 -1 -1 -1
8 11 7 7 9 11 9 9 9 8 6 7 7 8 7 6 6 5 5 4 4 4 4 3 2 2 2 1 1 1 1 0 0 0 0 0 0 0 -0 -1 -1 -1 -0 1
10 9 7 8 10 12 10 10 11 9 7 7 7 9 9 7 5 5 5 3 3 4 5 4 3 3 2 2 1 1 1 0 -0 -0 0 0 0 0 1 1 0 1 -0 1
9 7 8 9 11 9 11 7 10 12 9 11 7 12 9 8 7 6 5 4 4 4 4 4 3 3 2 2 1 1 0 0 -0 -0 0 1 2 2 1 1 0 1 2 2
10 10 10 10 9 7 10 8 10 10 9 9 9 11 9 8 8 7 6 4 4 4 4 4 3 3 2 1 1 1 1 0 0 -0 -0 1 1 1 1 1 1 1 1 0
9 6 8 8 7 7 7 11 11 9 9 13 10 10 10 9 8 7 5 4 4 4 4 3 3 2 2 2 1 1 1 1 0 0 0 0 1 1 1 1 2 2 2 1
10 9 7 7 10 7 9 12 15 14 14 13 9 10 9 7 6 5 5 4 4 4 4 4 4 3 2 2 2 1 1 1 1 0 0 0 0 0 1 1 1 3 4 4
13 15 9 7 9 10 11 11 14 16 15 13 9 12 9 6 5 5 4 4 4 4 4 4 3 3 3 2 2 2 2 2 1 1 1 0 0 1 1 0 1 2 2 2
14 13 7 7 6 7 9 13 9 12 10 12 11 9 7 6 6 5 4 4 4 4 4 4 3 3 3 2 2 2 1 1 1 1 0 0 0 0 1 0 0 1 3 4
10 14 8 7 7 7 8 7 11 11 15 15 12 11 11 8 7 5 5 5 4 4 4 3 3 3 2 2 2 1 1 1 1 1 1 1 0 0 0 0 2 3 4 5
8 11 10 8 10 10 9 10 10 10 12 13 14 12 8 9 8 6 5 4 4 4 4 3 3 3 2 2 2 1 1 1 1 1 1 1 1 1 1 3 4 5 6 6
8 10 12 10 7 6 7 9 9 12 14 11 10 13 8 7 7 6 5 5 4 4 4 3 3 3 2 2 2 2 2 2 1 1 1 2 2 3 6 6 6 6 6 5
9 12 14 12 9 7 9 8 8 9 9 12 13 13 7 7 7 6 6 5 4 4 4 3 3 3 3 3 3 2 2 2 2 4 5 6 7 7 7 7 7 7 7 7
8 11 13 15 11 9 10 9 8 9 11 11 11 11 9 8 8 7 6 5 4 4 4 4 4 3 4 3 3 4 4 6 7 7 8 9 8 8 8 8 7 7 6 7
8 14 12 10 9 9 9 9 9 10 9 11 9 10 10 9 8 7 6 5 5 4 4 4 4 4 4 4 5 6 7 8 7 8 9 9 9 9 9 8 8 8 7 7
7 14 12 12 9 9 10 8 8 8 9 9 9 10 8 7 6 7 7 7 6 5 4 4 5 5 6 7 7 7 6 7 7 8 9 8 7 8 7 8 8 9 7 7
10 12 13 15 10 10 12 9 8 8 8 8 10 9 8 8 8 8 7 7 8 8 7 5 5 7 8 7 6 4 5 6 6 6 7 7 8 7 8 8 9 9 8 8
10 11 12 14 11 16 10 7 7 8 7 7 8 8 7 8 8 9 9 9 9 9 8 8 8 8 7 7 5 4 4 5 6 7 7 7 8 8 9 9 10 9 8 8
8 11 14 15 14 11 10 10 10 10 10 7 7 8 8 7 8 11 10 10 10 9 9 8 8 9 8 7 6 6 7 7 8 8 8 7 7 9 9 9 9 8 8 8
9 9 14 14 16 18 13 8 7 7 12 8 7 7 8 7 11 11 11 10 10 10 10 10 10 10 10 7 7 8 9 10 10 10 9 7 9 10 11 10 10 9 8 9
13 13 15 15 16 13 9 7 6 13 13 8 7 7 7 8 7 9 10 11 11 11 11 11 11 11 9 7 7 9 10 11 11 10 9 10 10 10 11 11 8 7 7 7
14 15 15 13 14 18 7 8 12 10 7 7 7 6 7 6 8 10 11 11 11 11 11 11 11 11 10 9 9 11 12 11 11 11 11 11 11 11 10 10 9 8 8 7
14 12 14 13 14 8 6 7 6 6 7 6 6 5 5 7 8 10 11 11 11 11 11 11 11 11 11 11 10 11 12 12 12 12 12 10 11 9 8 9 9 9 7 7
8 7 11 11 9 8 7 5 5 5 6 5 5 4 5 7 8 9 11 11 11 11 11 10 10 11 10 9 10 11 11 11 11 12 11 11 10 9 9 8 8 8 8 8
8 7 10 10 9 7 7 6 6 5 5 5 5 6 7 7 8 9 10 11 10 9 9 9 8 9 9 8 8 8 7 7 8 10 10 10 10 10 10 9 9 10 11 11
6 9 10 12 7 8 7 6 5 6 6 6 6 6 6 7 8 10 10 11 10 9 8 7 7 7 7 7 6 6 6 5 6 6 7 7 7 8 8 9 11 13 13 12